timestamp,wind_dir_avg,wind_spd_avg,wind_spd_max_dir,wind_spd_gust,battery_voltage,lat,long
2023-07-12 00:04:00+00:00,217.0,2.72,217.0,2.98,12.65,47.59359,-54.27349
2023-07-12 00:14:01+00:00,214.0,2.23,215.0,2.44,12.41,47.59359,-54.27349
2023-07-12 00:24:01+00:00,220.0,1.46,218.0,1.77,12.41,47.59359,-54.27349
2023-07-12 00:34:01+00:00,232.0,0.82,230.0,0.96,12.41,47.59359,-54.27349
2023-07-12 00:44:01+00:00,221.0,0.45,224.0,0.67,12.41,47.59359,-54.27349
2023-07-12 00:54:01+00:00,175.0,0.66,164.0,1.31,12.41,47.59359,-54.27349
2023-07-12 01:04:01+00:00,244.0,0.57,258.0,0.74,12.41,47.59359,-54.27349
2023-07-12 01:14:01+00:00,115.0,0.43,135.0,0.62,12.41,47.59359,-54.27349
2023-07-12 01:24:01+00:00,140.0,1.91,144.0,2.55,12.41,47.59359,-54.27349
2023-07-12 01:34:01+00:00,152.0,5.17,151.0,5.44,12.41,47.59359,-54.27349
2023-07-12 01:44:01+00:00,161.0,4.97,162.0,5.09,12.41,47.59359,-54.27349
2023-07-12 01:54:01+00:00,156.0,5.44,156.0,5.9,12.41,47.59359,-54.27349
2023-07-12 02:04:01+00:00,145.0,4.81,148.0,5.27,12.41,47.59359,-54.27349
2023-07-12 02:14:01+00:00,139.0,4.07,138.0,5.04,12.41,47.59359,-54.27349
2023-07-12 02:24:01+00:00,137.0,3.05,146.0,3.56,12.41,47.59359,-54.27349
2023-07-12 02:34:01+00:00,128.0,4.26,126.0,4.79,12.41,47.59359,-54.27349
2023-07-12 02:44:01+00:00,130.0,4.29,128.0,4.84,12.41,47.59359,-54.27349
2023-07-12 02:54:01+00:00,126.0,4.09,128.0,4.44,12.41,47.59359,-54.27349
2023-07-12 03:04:01+00:00,134.0,2.82,133.0,3.39,12.41,47.59359,-54.27349
2023-07-12 03:14:01+00:00,140.0,2.68,124.0,3.19,12.41,47.59359,-54.27349
2023-07-12 03:24:01+00:00,164.0,1.5,166.0,1.89,12.41,47.59359,-54.27349
2023-07-12 03:34:01+00:00,157.0,1.43,161.0,1.71,12.41,47.59359,-54.27349
2023-07-12 03:44:01+00:00,146.0,0.86,148.0,1.02,12.41,47.59359,-54.27349
2023-07-12 03:54:01+00:00,204.0,1.12,186.0,1.78,12.41,47.59359,-54.27349
2023-07-12 04:04:01+00:00,184.0,1.24,202.0,2.2,12.41,47.59359,-54.27349
2023-07-12 04:14:00+00:00,300.0,0.47,318.0,0.99,12.41,47.59359,-54.27349
2023-07-12 04:24:00+00:00,81.0,0.39,89.0,0.57,12.41,47.59359,-54.27349
2023-07-12 04:34:00+00:00,149.0,1.43,152.0,1.69,12.41,47.59359,-54.27349
2023-07-12 04:44:00+00:00,138.0,2.11,139.0,2.71,12.41,47.59359,-54.27349
2023-07-12 04:54:00+00:00,158.0,2.73,160.0,2.97,12.41,47.59359,-54.27349
2023-07-12 05:04:00+00:00,162.0,3.05,162.0,3.34,12.41,47.59359,-54.27349
2023-07-12 05:14:01+00:00,135.0,2.02,139.0,2.8,12.33,47.59359,-54.27349
2023-07-12 05:24:01+00:00,146.0,2.54,150.0,2.79,12.33,47.59359,-54.27349
2023-07-12 05:34:01+00:00,150.0,2.24,148.0,2.34,12.33,47.59359,-54.27349
2023-07-12 05:44:01+00:00,119.0,1.23,128.0,1.81,12.33,47.59359,-54.27349
2023-07-12 05:54:01+00:00,120.0,1.56,124.0,1.75,12.33,47.59359,-54.27349
2023-07-12 06:04:01+00:00,125.0,2.0,125.0,2.1,12.33,47.59359,-54.27349
2023-07-12 06:14:00+00:00,133.0,2.48,134.0,2.69,12.33,47.59359,-54.27349
2023-07-12 06:24:00+00:00,131.0,3.02,132.0,3.21,12.33,47.59359,-54.27349
2023-07-12 06:34:00+00:00,135.0,2.34,131.0,2.94,12.33,47.59359,-54.27349
2023-07-12 06:44:00+00:00,136.0,1.66,141.0,1.97,12.33,47.59359,-54.27349
2023-07-12 06:54:00+00:00,97.0,0.89,69.0,1.35,12.33,47.59359,-54.27349
2023-07-12 07:04:00+00:00,73.0,1.75,63.0,2.28,12.33,47.59359,-54.27349
2023-07-12 07:14:01+00:00,68.0,1.83,68.0,2.46,12.33,47.59359,-54.27349
2023-07-12 07:24:01+00:00,64.0,2.15,69.0,2.55,12.33,47.59359,-54.27349
2023-07-12 07:34:01+00:00,71.0,2.32,74.0,3.04,12.33,47.59359,-54.27349
2023-07-12 07:44:01+00:00,90.0,2.01,89.0,3.25,12.33,47.59359,-54.27349
2023-07-12 07:54:01+00:00,75.0,1.79,71.0,2.28,12.33,47.59359,-54.27349
2023-07-12 08:04:01+00:00,77.0,1.54,74.0,2.07,12.33,47.59359,-54.27349
2023-07-12 08:14:00+00:00,71.0,2.1,67.0,2.54,12.25,47.59359,-54.27349
2023-07-12 08:24:00+00:00,96.0,1.26,114.0,2.33,12.25,47.59359,-54.27349
2023-07-12 08:34:00+00:00,96.0,1.89,103.0,3.55,12.25,47.59359,-54.27349
2023-07-12 08:44:00+00:00,94.0,1.92,93.0,3.91,12.25,47.59359,-54.27349
2023-07-12 08:54:00+00:00,97.0,1.72,120.0,2.5,12.25,47.59359,-54.27349
2023-07-12 09:04:00+00:00,100.0,1.96,95.0,2.94,12.25,47.59359,-54.27349
2023-07-12 09:14:00+00:00,76.0,1.97,69.0,3.02,12.41,47.59359,-54.27349
2023-07-12 09:24:00+00:00,71.0,2.4,61.0,3.74,12.41,47.59359,-54.27349
2023-07-12 09:34:00+00:00,80.0,1.52,75.0,2.05,12.41,47.59359,-54.27349
2023-07-12 09:44:00+00:00,89.0,1.31,86.0,1.91,12.41,47.59359,-54.27349
2023-07-12 09:54:00+00:00,82.0,1.63,87.0,2.49,12.41,47.59359,-54.27349
2023-07-12 10:04:00+00:00,87.0,0.91,79.0,1.62,12.41,47.59359,-54.27349
2023-07-12 10:14:01+00:00,72.0,1.38,76.0,2.02,13.29,47.59359,-54.27349
2023-07-12 10:24:01+00:00,86.0,1.82,90.0,2.59,13.29,47.59359,-54.27349
2023-07-12 10:34:01+00:00,95.0,1.38,94.0,2.54,13.29,47.59359,-54.27349
2023-07-12 10:44:01+00:00,127.0,4.03,120.0,4.78,13.29,47.59359,-54.27349
2023-07-12 10:54:01+00:00,127.0,2.84,130.0,3.73,13.29,47.59359,-54.27349
2023-07-12 11:04:01+00:00,127.0,2.69,129.0,3.11,13.29,47.59359,-54.27349
2023-07-12 11:14:01+00:00,143.0,2.98,147.0,3.38,13.6,47.59359,-54.27349
2023-07-12 11:24:01+00:00,152.0,2.37,153.0,2.52,13.6,47.59359,-54.27349
2023-07-12 11:34:01+00:00,142.0,3.82,144.0,4.56,13.6,47.59359,-54.27349
2023-07-12 11:44:01+00:00,167.0,2.73,168.0,3.05,13.6,47.59359,-54.27349
2023-07-12 11:54:01+00:00,182.0,2.53,183.0,2.74,13.6,47.59359,-54.27349
2023-07-12 12:04:01+00:00,170.0,0.9,165.0,1.1,13.6,47.59359,-54.27349
2023-07-12 12:14:00+00:00,124.0,1.5,123.0,1.73,13.76,47.59359,-54.27349
2023-07-12 12:24:00+00:00,134.0,1.16,128.0,2.02,13.76,47.59359,-54.27349
2023-07-12 12:34:00+00:00,165.0,5.44,167.0,5.92,13.76,47.59359,-54.27349
2023-07-12 12:44:00+00:00,164.0,3.98,164.0,4.48,13.76,47.59359,-54.27349
2023-07-12 12:54:00+00:00,160.0,2.95,167.0,3.55,13.76,47.59359,-54.27349
2023-07-12 13:04:00+00:00,166.0,3.24,167.0,3.71,13.76,47.59359,-54.27349
2023-07-12 13:14:00+00:00,171.0,3.36,170.0,3.68,14.32,47.59359,-54.27349
2023-07-12 13:24:00+00:00,181.0,3.63,179.0,3.91,14.32,47.59359,-54.27349
2023-07-12 13:34:00+00:00,177.0,4.01,177.0,4.44,14.32,47.59359,-54.27349
2023-07-12 13:44:00+00:00,173.0,4.13,174.0,4.43,14.32,47.59359,-54.27349
2023-07-12 13:54:00+00:00,176.0,3.66,179.0,4.08,14.32,47.59359,-54.27349
2023-07-12 14:04:00+00:00,173.0,3.41,172.0,3.75,14.32,47.59359,-54.27349
2023-07-12 14:14:01+00:00,165.0,3.02,167.0,3.17,13.68,47.59359,-54.27349
2023-07-12 14:24:01+00:00,160.0,3.36,160.0,3.58,13.68,47.59359,-54.27349
2023-07-12 14:34:01+00:00,165.0,4.05,163.0,5.07,13.68,47.59359,-54.27349
2023-07-12 14:44:01+00:00,189.0,3.76,190.0,4.1,13.68,47.59359,-54.27349
2023-07-12 14:54:01+00:00,217.0,2.85,223.0,3.25,13.68,47.59359,-54.27349
2023-07-12 15:04:01+00:00,213.0,2.03,218.0,2.5,13.68,47.59359,-54.27349
2023-07-12 15:14:00+00:00,266.0,2.54,267.0,2.7,13.6,47.59359,-54.27349
2023-07-12 15:24:00+00:00,275.0,1.93,280.0,2.28,13.6,47.59359,-54.27349
2023-07-12 15:34:00+00:00,273.0,1.61,272.0,1.9,13.6,47.59359,-54.27349
2023-07-12 15:44:00+00:00,265.0,2.83,268.0,3.94,13.6,47.59359,-54.27349
2023-07-12 15:54:00+00:00,257.0,3.31,256.0,3.92,13.6,47.59359,-54.27349
2023-07-12 16:04:00+00:00,256.0,3.14,256.0,3.38,13.6,47.59359,-54.27349
2023-07-12 16:14:01+00:00,257.0,2.54,260.0,2.92,14.32,47.59359,-54.27349
2023-07-12 16:24:01+00:00,243.0,3.2,244.0,3.58,14.32,47.59359,-54.27349
2023-07-12 16:34:01+00:00,259.0,2.66,257.0,3.07,14.32,47.59359,-54.27349
2023-07-12 16:44:01+00:00,259.0,2.99,260.0,3.22,14.32,47.59359,-54.27349
2023-07-12 16:54:01+00:00,268.0,2.06,263.0,2.35,14.32,47.59359,-54.27349
2023-07-12 17:04:01+00:00,243.0,2.47,234.0,3.47,14.32,47.59359,-54.27349
2023-07-12 17:14:00+00:00,233.0,4.98,235.0,6.07,14.24,47.59359,-54.27349
2023-07-12 17:24:00+00:00,230.0,6.9,242.0,10.48,14.24,47.59359,-54.27349
2023-07-12 17:34:00+00:00,225.0,6.5,235.0,8.41,14.24,47.59359,-54.27349
2023-07-12 17:44:00+00:00,232.0,7.84,238.0,9.98,14.24,47.59359,-54.27349
2023-07-12 17:54:00+00:00,231.0,7.21,235.0,8.86,14.24,47.59359,-54.27349
2023-07-12 18:04:00+00:00,228.0,7.64,226.0,9.48,14.24,47.59359,-54.27349
2023-07-12 18:14:01+00:00,233.0,7.07,237.0,9.15,13.76,47.59359,-54.27349
2023-07-12 18:24:01+00:00,234.0,8.1,242.0,9.92,13.76,47.59359,-54.27349
2023-07-12 18:34:01+00:00,233.0,7.49,238.0,9.32,13.76,47.59359,-54.27349
2023-07-12 18:44:01+00:00,236.0,7.8,241.0,9.98,13.76,47.59359,-54.27349
2023-07-12 18:54:01+00:00,233.0,7.27,240.0,9.3,13.76,47.59359,-54.27349
2023-07-12 19:04:01+00:00,229.0,8.15,239.0,9.61,13.76,47.59359,-54.27349
2023-07-12 19:14:01+00:00,230.0,8.05,237.0,9.66,13.68,47.59359,-54.27349
2023-07-12 19:24:01+00:00,227.0,9.33,227.0,10.9,13.68,47.59359,-54.27349
2023-07-12 19:34:01+00:00,225.0,9.61,225.0,10.91,13.68,47.59359,-54.27349
2023-07-12 19:44:01+00:00,224.0,8.4,227.0,10.17,13.68,47.59359,-54.27349
2023-07-12 19:54:01+00:00,228.0,7.95,241.0,10.25,13.68,47.59359,-54.27349
2023-07-12 20:04:01+00:00,228.0,7.71,226.0,9.39,13.68,47.59359,-54.27349
2023-07-12 20:14:00+00:00,229.0,7.34,230.0,8.46,13.44,47.59359,-54.27349
2023-07-12 20:24:00+00:00,226.0,6.48,225.0,7.66,13.44,47.59359,-54.27349
2023-07-12 20:34:00+00:00,228.0,6.32,224.0,7.3,13.44,47.59359,-54.27349
2023-07-12 20:44:00+00:00,231.0,6.05,232.0,7.0,13.44,47.59359,-54.27349
2023-07-12 20:54:00+00:00,229.0,6.15,232.0,8.17,13.44,47.59359,-54.27349
2023-07-12 21:04:00+00:00,230.0,7.3,231.0,8.71,13.44,47.59359,-54.27349
2023-07-12 21:14:01+00:00,228.0,8.61,224.0,9.71,13.37,47.59359,-54.27349
2023-07-12 21:24:01+00:00,232.0,7.24,233.0,8.38,13.37,47.59359,-54.27349
2023-07-12 21:34:01+00:00,227.0,6.61,229.0,7.56,13.37,47.59359,-54.27349
2023-07-12 21:44:01+00:00,221.0,5.3,224.0,6.08,13.37,47.59359,-54.27349
2023-07-12 21:54:01+00:00,224.0,5.6,223.0,8.13,13.37,47.59359,-54.27349
2023-07-12 22:04:01+00:00,225.0,6.05,230.0,6.78,13.37,47.59359,-54.27349
2023-07-12 22:14:00+00:00,223.0,6.2,226.0,6.72,13.29,47.59359,-54.27349
2023-07-12 22:24:00+00:00,236.0,4.51,232.0,5.15,13.29,47.59359,-54.27349
2023-07-12 22:34:00+00:00,241.0,5.42,240.0,5.89,13.29,47.59359,-54.27349
2023-07-12 22:44:00+00:00,228.0,4.31,234.0,4.95,13.29,47.59359,-54.27349
2023-07-12 22:54:00+00:00,233.0,4.16,232.0,5.31,13.29,47.59359,-54.27349
2023-07-12 23:04:00+00:00,232.0,3.64,231.0,4.22,13.29,47.59359,-54.27349
2023-07-12 23:14:00+00:00,227.0,2.42,235.0,3.01,13.05,47.59359,-54.27349
2023-07-12 23:24:00+00:00,209.0,3.59,214.0,4.3,13.05,47.59359,-54.27349
2023-07-12 23:34:00+00:00,214.0,4.65,219.0,5.16,13.05,47.59359,-54.27349
2023-07-12 23:44:00+00:00,213.0,4.96,214.0,5.36,13.05,47.59359,-54.27349
2023-07-12 23:54:00+00:00,210.0,3.41,211.0,3.76,13.05,47.59359,-54.27349
